Location: Unspecified
(0.0000°N, 0.0000°E)
Time: 10:22:21
(UTC+00:00)

Vanguard 3 - Pass Details

Date: 13 October 2022
Orbit: 509 x 3255 km, 33.3° (Epoch: 29 November)

Event Time Altitude Azimuth Distance (km) Brightness Sun altitude
Rises 21:29:44 0° 223° (SW) 7,224 12.4 -55.1°
Reaches altitude 10° 21:36:14 10° 212° (SSW) 6,124 11.8 -56.6°
Enters shadow 21:47:29 26° 177° (S) 4,478 10.8 -59.4°
